FW3192 Weather Reports


Display with metric or nautical units.
time (UTC)temp
F
wind
direction
speed
MPH
gust
MPH
rain 1hr
in
rain 24hr
in
rain mn
in
humidity
%
barometer
mb
20260502211513 53 339 9.0 14.0 0.00 0.00 0.00 87 1010.2
20260502210011 54 341 9.0 14.0 0.00 0.00 0.00 87 1009.9
20260502204600 54 334 10.0 14.0 0.00 0.00 0.00 87 1009.8
20260502203058 54 344 8.0 12.0 0.00 0.00 0.00 88 1009.6
20260502201553 54 332 8.0 11.0 0.00 0.00 0.00 88 1009.8
20260502200115 54 343 8.0 13.0 0.00 0.00 0.00 88 1009.5
20260502194605 53 334 9.0 13.0 0.00 0.00 0.00 89 1009.5
20260502193052 53 337 6.0 10.0 0.00 0.00 0.00 88 1009.6
20260502191556 53 357 7.0 10.0 0.00 0.00 0.00 88 1009.4
20260502190050 53 10 8.0 13.0 0.00 0.00 0.00 87 1009.3
20260502184531 53 337 7.0 13.0 0.00 0.00 0.00 87 1009.1
20260502183036 53 328 8.0 12.0 0.00 0.00 0.00 87 1009.2
20260502181525 54 333 8.0 14.0 0.00 0.00 0.00 86 1009.1
20260502163008 53 6 6.0 8.0 0.00 0.00 0.00 87 1009.4
20260502161553 53 10 6.0 9.0 0.00 0.00 0.00 87 1009.5
20260502151552 53 359 5.0 8.0 0.00 0.00 0.00 87 1009.7
20260502150116 53 351 4.0 7.0 0.00 0.00 0.00 87 1009.9
20260502123008 57 341 7.0 11.0 0.00 0.00 0.00 92 1010.4
20260502121607 57 19 6.0 9.0 0.00 0.00 0.00 92 1010.2
20260502120111 57 10 6.0 11.0 0.00 0.00 0.00 91 1010.2
20260502114555 57 348 6.0 10.0 0.00 0.00 0.00 91 1010.1
20260502113108 58 341 7.0 12.0 0.00 0.00 0.00 91 1010.0
20260502111547 58 341 7.0 11.0 0.00 0.00 0.00 91 1009.8
20260502110046 58 355 6.0 11.0 0.00 0.00 0.00 91 1009.8
20260502104540 58 7 6.0 10.0 0.00 0.00 0.00 91 1009.5
20260502103059 59 16 5.0 9.0 0.00 0.00 0.00 91 1009.5
20260502101546 59 20 5.0 9.0 0.00 0.00 0.00 91 1009.3
20260502091512 59 10 4.0 7.0 0.00 0.00 0.00 91 1009.1
20260502070048 59 342 5.0 10.0 0.00 0.00 0.00 91 1008.6
20260502064546 59 31 5.0 9.0 0.00 0.00 0.00 91 1008.5
20260502063054 59 337 5.0 9.0 0.00 0.00 0.00 91 1008.5
20260502061543 59 345 5.0 8.0 0.00 0.00 0.00 91 1008.2
20260502060026 59 340 4.0 6.0 0.00 0.00 0.00 90 1008.1
20260502054524 60 339 4.0 8.0 0.00 0.00 0.00 90 1008.4
20260502053006 60 308 7.0 11.0 0.00 0.00 0.00 89 1008.3
20260502051505 60 296 7.0 11.0 0.00 0.00 0.00 89 1008.2
20260502050002 60 292 9.0 13.0 0.00 0.00 0.00 89 1008.1
20260502044600 61 303 9.0 13.0 0.00 0.00 0.00 89 1008.3
20260502043106 61 287 5.0 9.0 0.00 0.00 0.00 89 1007.9
20260502041555 62 301 4.0 10.0 0.00 0.00 0.00 88 1008.5
20260502040054 62 308 5.0 9.0 0.00 0.00 0.00 88 1008.2
20260502034553 62 292 3.0 10.0 0.00 0.00 0.00 87 1008.0
20260502033042 62 273 5.0 11.0 0.00 0.00 0.00 86 1008.4
20260502031535 62 269 5.0 11.0 0.00 0.00 0.00 85 1008.2
20260502030037 64 288 5.0 16.0 0.00 0.00 0.00 78 1008.2
20260502024529 67 280 5.0 10.0 0.00 0.00 0.00 70 1008.3
20260502023030 68 280 4.0 10.0 0.00 0.00 0.00 69 1008.0
20260502021528 68 286 4.0 9.0 0.00 0.00 0.00 72 1008.0
20260502020027 67 256 4.0 11.0 0.00 0.00 0.00 75 1008.2
20260502014526 67 251 8.0 13.0 0.00 0.00 0.00 73 1008.5
20260502013010 71 313 10.0 20.0 0.00 0.00 0.00 57 1008.3
20260502011510 71 357 13.0 22.0 0.00 0.00 0.00 57 1007.8
20260502010009 71 339 17.0 24.0 0.00 0.00 0.00 57 1007.9
20260502004509 70 10 16.0 25.0 0.00 0.00 0.00 58 1008.2
20260502003007 71 334 14.0 22.0 0.00 0.00 0.00 56 1008.1
20260502001507 71 355 16.0 25.0 0.00 0.00 0.00 55 1008.0
20260502000006 70 337 13.0 21.0 0.00 0.00 0.00 58 1008.1
20260501234504 68 3 14.0 20.0 0.00 0.00 0.00 61 1008.1
20260501233049 66 3 10.0 15.0 0.00 0.00 0.00 68 1008.1
20260501231535 66 351 12.0 20.0 0.00 0.00 0.00 70 1008.2
20260501230030 69 323 23.0 33.0 0.00 0.00 0.00 62 1008.2
20260501224527 73 334 22.0 39.0 0.00 0.00 0.00 48 1007.8
20260501223034 74 343 14.0 21.0 0.00 0.00 0.00 42 1007.7
20260501221524 73 355 9.0 18.0 0.00 0.00 0.00 43 1007.7
20260501220018 73 5 12.0 22.0 0.00 0.00 0.00 43 1007.5
20260501214526 74 349 13.0 23.0 0.00 0.00 0.00 43 1007.2
20260501213058 74 346 12.0 25.0 0.00 0.00 0.00 42 1006.7